Flag for Germany Weather past 2 weeks in Dillenburg, Hesse, Germany

Now
37 °F

Passing clouds.


Feels Like: 32 °F
Forecast: 28 / 50 °F
Wind: 7 mph from West

Location: Hessen

Current Time: Mar 27, 2015 at 10:21:48 PM

Latest Report: Mar 27, 2015 at 8:50 PM


Visibility: N/A

Pressure: 30.15 "Hg

Humidity: 81%

Dew point: 32 °F

Location of DillenburgLocation

Historic Weather in Dillenburg — Graph

°F

Dillenburg temperature yesterday

Maximum temperature yesterday: 45 °F (at 3:50 PM)
Minimum temperature yesterday: 32 °F (at 8:50 PM)
Average temperature yesterday: 37 °F

Past Weeks' High & Low Weather Summary

 TemperatureHumidityPressure
High59 °F (Mar 18, 2:20 PM)100% (Mar 14, 9:20 AM)30.30 "Hg (Mar 14, 9:20 AM)
Low28 °F (Mar 14, 6:50 AM)44% (Mar 18, 1:20 PM)29.65 "Hg (Mar 25, 7:20 AM)
Average41 °F81%30.06 "Hg
* Reported Mar 12 8:20 PM — Mar 27 8:50 PM, Dillenburg, Weather by CustomWeather, © 2015

Note: Actual official high and low records may vary slightly from our data, if they occured in-between our weather recording intervals... More about our weather records

Advertising

Dillenburg weather history for previous 24 hours

 ConditionsComfort  
Time TempWeatherWind HumidityBarometerVisibility
8:50 PM
Fri, Mar 27
37 °FPassing clouds.7 mph81%30.15 "HgN/A
8:20 PM37 °FPassing clouds.8 mph81%30.15 "HgN/A
7:50 PM39 °FPassing clouds.8 mph75%30.12 "HgN/A
7:20 PM39 °FPartly cloudy.10 mph75%30.12 "HgN/A
6:50 PM39 °FBroken clouds.12 mph75%30.09 "HgN/A
6:20 PM39 °FPartly sunny.9 mph81%30.09 "HgN/A
5:50 PM39 °FPartly sunny.10 mph81%30.07 "HgN/A
5:20 PM39 °FPartly sunny.10 mph81%30.07 "HgN/A
4:50 PM41 °FPartly sunny.13 mph76%30.07 "HgN/A
4:20 PM39 °FBroken clouds.13 mph81%30.04 "HgN/A
3:50 PM39 °FPartly sunny.13 mph81%30.04 "HgN/A
3:20 PM41 °FBroken clouds.15 mph76%30.04 "HgN/A
2:50 PM39 °FBroken clouds.16 mph81%30.01 "HgN/A
2:20 PM39 °FBroken clouds.16 mph81%30.01 "HgN/A
1:50 PM39 °FBroken clouds.16 mph87%30.01 "HgN/A
1:20 PM37 °FScattered showers. Partly sunny.18 mph93%30.01 "Hg5 mi
12:50 PM36 °FLight rain. Broken clouds.16 mph100%30.01 "Hg4 mi
12:20 PM37 °FLight rain. Broken clouds.16 mph93%29.98 "Hg4 mi
11:50 AM37 °FBroken clouds.16 mph93%29.98 "HgN/A
11:20 AM37 °FBroken clouds.16 mph93%29.98 "Hg5 mi
10:50 AM36 °FFog.15 mph100%29.95 "Hg3 mi
10:20 AM34 °FBroken clouds.14 mph100%29.95 "Hg2 mi
9:50 AM34 °FFog.15 mph100%29.95 "Hg2 mi
9:20 AM32 °FLight snow. More clouds than sun.13 mph100%29.95 "Hg2 mi
8:50 AM32 °FLight snow. More clouds than sun.12 mph100%29.92 "Hg2 mi
7:50 AM34 °FLight rain. Mostly cloudy.12 mph100%29.89 "Hg1 mi
Weather by CustomWeather, © 2015

See weather overviewHow to use our weather pages